カタログに戻る

DELTA 1 DEB

運用中SSO
NORAD 12204·DEBRIS·🇺🇸 United States

打ち上げ Mar 5, 1978 から Vandenberg Space Force Base

Loading…

次のパス (今後24時間)

TLE

最新Source: Space-Track

元期: Sep 14, 2026, 13:31 UTC

1 12204U 78026AV  26257.56344757  .00000247  00000-0  10752-3 0  9996
2 12204  98.7425 282.3073 0077657 317.8948  41.6284 14.31018034370430

AllMySatでDELTA 1 DEBをリアルタイム追跡

Download on the App Store